Weather History for Lihue, HI

Change the Weather History Date:

Tuesday, February 7, 2012

  Actual Average Record
Temperature  
Mean Temperature 73 °F 72 °F  
Max Temperature 79 °F 78 °F 86 °F (1960)
Min Temperature 66 °F 65 °F 56 °F (1951)
Degree Days  
Heating Degree Days 0 0  
Month to date heating degree days 0 0  
Since 1 July heating degree days 0 0  
Cooling Degree Days 8 7  
Month to date cooling degree days 49 49  
Year to date cooling degree days 319 258  
Growing Degree Days 22 (Base 50)    
Moisture  
Dew Point 62 °F    
Average Humidity 79    
Maximum Humidity 93    
Minimum Humidity 64    
Precipitation  
Precipitation 0.11 in 0.10 in 0.61 in (1976)
Month to date precipitation 0.18 0.79  
Year to date precipitation 4.36 4.54  
Snow  
Snow 0.00 in - - ()
Month to date snowfall 0.0  
Since 1 July snowfall 0.0  
Snow Depth 0.00 in    
Sea Level Pressure  
Sea Level Pressure 29.87 in    
Wind  
Wind Speed 12 mph (WSW)    
Max Wind Speed 28 mph    
Max Gust Speed 33 mph    
Visibility 9 miles    
Events Rain    
T = Trace of Precipitation, MM = Missing Value Source: NWS Daily Summary

Daily Weather History Graph

Daily Weather History Graph

Search for Another Location

Airport:

Trip Planner

Search our weather history database for the weather conditions in past years. The results will help you decide how hot, cold, wet, or windy it might be!

Date:

Astronomy

Feb. 07, 2012 Rise Set
Actual Time 7:13 AM HST 6:30 PM HST
Civil Twilight 6:50 AM HST 6:53 PM HST
Nautical Twilight 6:23 AM HST 7:19 PM HST
Astronomical Twilight 5:57 AM HST 7:46 PM HST
Moon 6:45 PM HST (2/7) 6:54 AM HST (2/7)
Length of Visible Light 12h 03m
Length of Day
11h 16m
Full, 100% of the Moon is Illuminated
Feb 7
Full
Feb 14
Last Quarter
Feb 21
New
Feb 29
First Quarter
Mar 7
Full

Hourly Weather History & Observations

Time (HST) Temp. Dew Point Humidity Pressure Visibility Wind Dir Wind Speed Gust Speed Precip Events Conditions
12:53 AM 66.9 °F 63.0 °F 87% 29.87 in 10.0 mi WSW 10.4 mph - N/A   Clear
1:53 AM 68.0 °F 63.0 °F 84% 29.86 in 10.0 mi WSW 12.7 mph - N/A   Clear
2:53 AM 68.0 °F 64.0 °F 87% 29.84 in 10.0 mi SW 10.4 mph - N/A   Partly Cloudy
3:53 AM 69.1 °F 64.0 °F 84% 29.82 in 10.0 mi WSW 18.4 mph - N/A   Clear
4:53 AM 70.0 °F 64.0 °F 81% 29.82 in 10.0 mi SW 12.7 mph - N/A   Partly Cloudy
5:44 AM 69.8 °F 64.4 °F 83% 29.83 in 10.0 mi WSW 8.1 mph - N/A   Overcast
5:53 AM 70.0 °F 64.9 °F 84% 29.82 in 10.0 mi SW 9.2 mph - N/A   Overcast
6:00 AM 69.8 °F 64.4 °F 83% 29.83 in 10.0 mi SW 8.1 mph - N/A   Mostly Cloudy
6:53 AM 70.0 °F 64.0 °F 81% 29.83 in 10.0 mi SW 9.2 mph - N/A   Partly Cloudy
7:53 AM 71.1 °F 66.0 °F 84% 29.84 in 8.0 mi SW 12.7 mph 21.9 mph 0.00 in Rain Light Rain
8:53 AM 73.0 °F 66.0 °F 79% 29.85 in 10.0 mi SW 21.9 mph 27.6 mph 0.00 in   Clear
9:53 AM 75.9 °F 64.9 °F 69% 29.85 in 10.0 mi SW 16.1 mph 32.2 mph 0.00 in   Scattered Clouds
10:53 AM 75.0 °F 64.0 °F 69% 29.87 in 10.0 mi West 12.7 mph - 0.03 in   Mostly Cloudy
11:53 AM 77.0 °F 64.9 °F 66% 29.84 in 10.0 mi WSW 19.6 mph - N/A   Clear
12:53 PM 73.9 °F 66.9 °F 79% 29.85 in 9.0 mi Variable 4.6 mph - 0.00 in Rain Light Rain
1:08 PM 73.4 °F 64.4 °F 73% 29.85 in 10.0 mi NNE 10.4 mph - 0.00 in   Overcast
1:40 PM 75.2 °F 64.4 °F 69% 29.83 in 10.0 mi NE 5.8 mph - 0.00 in   Overcast
1:53 PM 75.9 °F 64.9 °F 69% 29.83 in 10.0 mi NNE 12.7 mph - 0.00 in   Overcast
2:19 PM 71.6 °F 64.4 °F 78% 29.83 in 3.0 mi North 6.9 mph - 0.00 in Rain Rain
2:23 PM 71.6 °F 66.2 °F 83% 29.83 in 1.8 mi Calm Calm - 0.01 in Rain Rain
2:34 PM 69.8 °F 66.2 °F 88% 29.83 in 2.0 mi Calm Calm - 0.07 in Rain Rain
2:39 PM 71.6 °F 66.2 °F 83% 29.83 in 3.0 mi Calm Calm - 0.07 in Rain Light Rain
2:53 PM 71.1 °F 66.9 °F 87% 29.83 in 5.0 mi West 4.6 mph - 0.07 in Rain Light Rain
3:53 PM 72.0 °F 66.0 °F 81% 29.83 in 10.0 mi NE 3.5 mph - 0.01 in   Overcast
4:53 PM 72.0 °F 64.9 °F 78% 29.84 in 10.0 mi South 4.6 mph - N/A   Mostly Cloudy
5:53 PM 73.0 °F 63.0 °F 71% 29.86 in 10.0 mi South 3.5 mph - N/A   Partly Cloudy
6:53 PM 71.1 °F 59.0 °F 66% 29.88 in 10.0 mi NW 3.5 mph - N/A   Clear
7:53 PM 68.0 °F 57.9 °F 70% 29.90 in 10.0 mi WNW 3.5 mph - N/A   Clear
8:53 PM 66.9 °F 55.9 °F 68% 29.94 in 10.0 mi WSW 3.5 mph - N/A   Clear
9:53 PM 68.0 °F 55.0 °F 63% 29.95 in 10.0 mi NNW 13.8 mph - N/A   Clear
10:20 PM 66.2 °F 55.4 °F 68% 29.97 in 10.0 mi SW 4.6 mph - N/A   Mostly Cloudy
10:37 PM 66.2 °F 55.4 °F 68% 29.97 in 10.0 mi West 4.6 mph - N/A   Mostly Cloudy
10:53 PM 66.0 °F 54.0 °F 65% 29.96 in 10.0 mi East 3.5 mph - N/A   Partly Cloudy
11:37 PM 68.0 °F 53.6 °F 60% 29.98 in 10.0 mi NW 4.6 mph - N/A   Mostly Cloudy
11:53 PM 62.1 °F 55.0 °F 78% 29.98 in 10.0 mi WNW 4.6 mph - N/A   Overcast